POLYTECH-UNIVERSE 3 (R*)

Last updated on Tue Aug 25 2026 00:03:14 GMT+0000 (Coordinated Universal Time)

1 57191U 23091AB 26236.56774791 .00004155 00000+0 19766-3 0 9999 2 57191 97.4995 293.9163 0013666 248.5280 111.4498 15.19662088174334
UTC large
Height (km)
Speed (km/s)
/
Latitude / Longitude
Inclination (degrees)
Orbital Period (minutes)
Azimuth
Elevation
Range (km)
Doppler Factor

Next 0 passes for location: London (51.5072 / 0.1276)

No passes found over London.
POLYTECH-UNIVERSE 3 (R*)